Location: Huntsville
(41.2590°N, 111.7678°W)
Time: 20:53:27
(UTC+00:00)

Vanguard 3 - Pass Details

Date: 13 June 2021
Orbit: 508 x 3261 km, 33.4° (Epoch: 28 July)

Event Time Altitude Azimuth Distance (km) Brightness Sun altitude
Rises 23:58:36 0° 266° (W) 5,318 12.4 31.3°
Reaches altitude 10° 00:03:42 10° 248° (WSW) 4,824 12.2 30.4°
Maximum altitude 00:11:25 17° 215° (SW) 4,895 11.6 28.9°
Drops below altitude 10° 00:20:48 10° 183° (S) 5,961 11.6 27.2°
Sets 00:28:40 0° 166° (SSE) 7,191 11.8 25.7°
